Time,TemperatureF,DewpointF,PressureIn,WindDirection,WindDirectionDegrees,WindSpeedMPH,WindSpeedGustMPH,Humidity,HourlyPrecipIn,Conditions,Clouds,dailyrainin,SoftwareType,DateUTC
2013-02-12 00:00:00,41.0,39.9,29.71,South,180,0.0,0.0,96,0.00,CLR,,0.02,WeatherDisplay:10.37,2013-02-12 08:00:00,
2013-02-12 00:05:00,41.0,39.9,29.71,South,180,0.0,0.0,96,0.00,CLR,,0.02,WeatherDisplay:10.37,2013-02-12 08:05:00,
2013-02-12 00:10:00,41.0,39.9,29.71,South,180,0.0,0.0,96,0.00,CLR,,0.02,WeatherDisplay:10.37,2013-02-12 08:10:00,
2013-02-12 00:15:00,41.0,39.9,29.71,South,180,0.0,0.0,96,0.00,CLR,,0.02,WeatherDisplay:10.37,2013-02-12 08:15:00,
2013-02-12 00:20:00,41.0,39.9,29.70,SW,225,0.0,0.0,96,0.00,CLR,,0.02,WeatherDisplay:10.37,2013-02-12 08:20:00,
2013-02-12 00:25:00,41.0,39.9,29.71,SW,225,0.0,0.0,96,0.00,CLR,,0.02,WeatherDisplay:10.37,2013-02-12 08:25:00,
2013-02-12 00:30:00,40.8,39.8,29.70,SW,225,0.0,0.0,96,0.00,CLR,,0.02,WeatherDisplay:10.37,2013-02-12 08:30:00,
2013-02-12 00:35:00,40.8,39.8,29.70,SW,225,0.0,0.0,96,0.00,CLR,,0.02,WeatherDisplay:10.37,2013-02-12 08:35:00,
2013-02-12 00:40:00,40.8,39.8,29.71,SW,225,0.0,0.0,96,0.00,CLR,,0.02,WeatherDisplay:10.37,2013-02-12 08:40:00,
2013-02-12 00:46:00,40.8,39.8,29.70,SE,135,0.0,0.0,96,0.00,CLR,,0.02,WeatherDisplay:10.37,2013-02-12 08:46:00,
2013-02-12 00:51:00,40.6,39.6,29.71,SE,135,0.0,0.0,96,0.00,CLR,,0.02,WeatherDisplay:10.37,2013-02-12 08:51:00,
2013-02-12 00:56:00,40.6,39.6,29.71,SE,135,0.0,0.0,96,0.00,CLR,,0.02,WeatherDisplay:10.37,2013-02-12 08:56:00,
2013-02-12 01:01:00,40.6,39.6,29.70,SE,135,0.0,0.0,96,0.00,CLR,,0.02,WeatherDisplay:10.37,2013-02-12 09:01:00,
2013-02-12 01:06:00,40.5,39.4,29.71,SE,135,0.0,0.0,96,0.00,CLR,,0.02,WeatherDisplay:10.37,2013-02-12 09:06:00,
2013-02-12 01:11:00,40.3,39.2,29.70,SE,135,0.0,0.0,96,0.00,CLR,,0.02,WeatherDisplay:10.37,2013-02-12 09:11:00,
2013-02-12 01:16:00,40.3,39.2,29.70,SE,135,0.0,0.0,96,0.00,CLR,,0.02,WeatherDisplay:10.37,2013-02-12 09:16:00,
2013-02-12 01:21:00,40.3,39.5,29.70,NE,45,0.0,0.0,97,0.00,CLR,,0.02,WeatherDisplay:10.37,2013-02-12 09:21:00,
2013-02-12 01:26:00,40.3,39.5,29.70,SE,135,0.0,0.0,97,0.00,CLR,,0.02,WeatherDisplay:10.37,2013-02-12 09:26:00,
2013-02-12 01:31:00,40.3,39.5,29.70,SE,135,0.0,0.0,97,0.00,CLR,,0.02,WeatherDisplay:10.37,2013-02-12 09:31:00,
2013-02-12 01:36:00,40.3,39.5,29.70,SE,135,0.0,0.0,97,0.00,CLR,,0.02,WeatherDisplay:10.37,2013-02-12 09:36:00,
2013-02-12 01:41:00,40.3,39.5,29.70,SE,135,0.0,0.0,97,0.00,CLR,,0.02,WeatherDisplay:10.37,2013-02-12 09:41:00,
2013-02-12 01:46:00,40.3,39.5,29.71,SE,135,0.0,0.0,97,0.00,CLR,,0.02,WeatherDisplay:10.37,2013-02-12 09:46:00,
2013-02-12 01:51:00,40.3,39.5,29.71,NW,315,0.0,0.0,97,0.00,CLR,,0.02,WeatherDisplay:10.37,2013-02-12 09:51:00,
2013-02-12 01:56:00,40.3,39.5,29.71,West,270,0.0,0.0,97,0.00,CLR,,0.02,WeatherDisplay:10.37,2013-02-12 09:56:00,
2013-02-12 02:01:00,40.3,39.5,29.71,West,270,0.0,0.0,97,0.00,CLR,,0.02,WeatherDisplay:10.37,2013-02-12 10:01:00,
2013-02-12 02:06:00,40.3,39.5,29.71,West,270,0.0,0.0,97,0.00,CLR,,0.02,WeatherDisplay:10.37,2013-02-12 10:06:00,
2013-02-12 02:11:00,40.5,39.7,29.71,West,270,0.0,0.0,97,0.00,CLR,,0.02,WeatherDisplay:10.37,2013-02-12 10:11:00,
2013-02-12 02:16:00,40.5,39.7,29.71,West,270,0.0,0.0,97,0.00,CLR,,0.02,WeatherDisplay:10.37,2013-02-12 10:16:00,
2013-02-12 02:21:00,40.5,39.7,29.71,West,270,0.0,0.0,97,0.00,CLR,,0.02,WeatherDisplay:10.37,2013-02-12 10:21:00,
2013-02-12 02:26:00,40.5,39.7,29.71,West,270,0.0,0.0,97,0.00,CLR,,0.02,WeatherDisplay:10.37,2013-02-12 10:26:00,
2013-02-12 02:31:00,40.5,39.7,29.71,West,270,0.0,0.0,97,0.00,CLR,,0.02,WeatherDisplay:10.37,2013-02-12 10:31:00,
2013-02-12 02:36:00,40.3,39.5,29.71,West,270,0.0,0.0,97,0.00,CLR,,0.02,WeatherDisplay:10.37,2013-02-12 10:36:00,
2013-02-12 02:41:00,40.5,39.7,29.71,West,270,0.0,0.0,97,0.00,CLR,,0.02,WeatherDisplay:10.37,2013-02-12 10:41:00,
2013-02-12 02:46:00,40.3,39.5,29.71,West,270,0.0,0.0,97,0.00,CLR,,0.02,WeatherDisplay:10.37,2013-02-12 10:46:00,
2013-02-12 02:51:00,40.5,39.7,29.71,West,270,0.0,0.0,97,0.00,CLR,,0.02,WeatherDisplay:10.37,2013-02-12 10:51:00,
2013-02-12 02:56:00,40.5,39.7,29.72,West,270,0.0,0.0,97,0.00,CLR,,0.02,WeatherDisplay:10.37,2013-02-12 10:56:00,
2013-02-12 03:01:00,40.5,39.7,29.71,West,270,0.0,0.0,97,0.00,CLR,,0.02,WeatherDisplay:10.37,2013-02-12 11:01:00,
2013-02-12 03:06:00,40.5,39.7,29.72,West,270,0.0,0.0,97,0.00,CLR,,0.02,WeatherDisplay:10.37,2013-02-12 11:06:00,
2013-02-12 03:11:00,40.5,39.7,29.72,West,270,0.0,0.0,97,0.00,CLR,,0.02,WeatherDisplay:10.37,2013-02-12 11:11:00,
2013-02-12 03:16:00,40.5,39.7,29.71,West,270,0.0,0.0,97,0.00,CLR,,0.02,WeatherDisplay:10.37,2013-02-12 11:16:00,
2013-02-12 03:21:00,40.5,39.7,29.71,West,270,0.0,0.0,97,0.00,CLR,,0.02,WeatherDisplay:10.37,2013-02-12 11:21:00,
2013-02-12 03:26:00,40.5,39.9,29.70,West,270,0.0,0.0,98,0.00,CLR,,0.02,WeatherDisplay:10.37,2013-02-12 11:26:00,
2013-02-12 03:31:00,40.6,39.9,29.70,East,90,0.0,0.0,97,0.00,CLR,,0.02,WeatherDisplay:10.37,2013-02-12 11:31:00,
2013-02-12 03:36:00,40.6,39.9,29.70,East,90,0.0,0.0,97,0.00,CLR,,0.02,WeatherDisplay:10.37,2013-02-12 11:36:00,
2013-02-12 03:41:00,40.6,39.9,29.71,SE,135,0.0,0.0,97,0.00,CLR,,0.02,WeatherDisplay:10.37,2013-02-12 11:41:00,
2013-02-12 03:46:00,40.6,40.1,29.70,East,90,0.0,0.0,98,0.00,CLR,,0.02,WeatherDisplay:10.37,2013-02-12 11:46:00,
2013-02-12 03:51:00,40.6,40.1,29.70,SE,135,0.0,0.0,98,0.00,CLR,,0.02,WeatherDisplay:10.37,2013-02-12 11:51:00,
2013-02-12 03:56:00,40.8,40.3,29.71,East,90,0.0,0.0,98,0.00,CLR,,0.02,WeatherDisplay:10.37,2013-02-12 11:56:00,
2013-02-12 04:01:00,40.8,40.3,29.71,East,90,0.0,0.0,98,0.00,CLR,,0.02,WeatherDisplay:10.37,2013-02-12 12:01:00,
2013-02-12 04:06:00,41.0,40.5,29.71,SW,225,0.0,0.0,98,0.00,CLR,,0.02,WeatherDisplay:10.37,2013-02-12 12:06:00,
2013-02-12 04:11:00,40.8,40.3,29.71,NW,315,0.0,0.0,98,0.00,CLR,,0.02,WeatherDisplay:10.37,2013-02-12 12:11:00,
2013-02-12 04:16:00,40.6,40.1,29.71,SW,225,0.0,0.0,98,0.00,CLR,,0.02,WeatherDisplay:10.37,2013-02-12 12:16:00,
2013-02-12 04:21:00,40.6,40.1,29.71,SW,225,0.0,0.0,98,0.00,CLR,,0.02,WeatherDisplay:10.37,2013-02-12 12:21:00,
2013-02-12 04:26:00,40.6,40.1,29.71,SW,225,0.0,0.0,98,0.00,CLR,,0.02,WeatherDisplay:10.37,2013-02-12 12:26:00,
2013-02-12 04:31:00,40.6,40.1,29.71,SW,225,0.0,0.0,98,0.00,CLR,,0.02,WeatherDisplay:10.37,2013-02-12 12:31:00,
2013-02-12 04:36:00,40.5,39.9,29.71,SW,225,0.0,0.0,98,0.00,CLR,,0.02,WeatherDisplay:10.37,2013-02-12 12:36:00,
2013-02-12 04:41:00,40.6,40.1,29.71,SW,225,0.0,0.0,98,0.00,CLR,,0.02,WeatherDisplay:10.37,2013-02-12 12:41:00,
2013-02-12 04:46:00,40.6,40.1,29.71,SW,225,0.0,0.0,98,0.00,CLR,,0.02,WeatherDisplay:10.37,2013-02-12 12:46:00,
2013-02-12 04:51:00,40.6,40.1,29.70,SW,225,0.0,0.0,98,0.00,CLR,,0.02,WeatherDisplay:10.37,2013-02-12 12:51:00,
2013-02-12 04:56:00,40.6,40.1,29.70,SW,225,0.0,0.0,98,0.00,CLR,,0.02,WeatherDisplay:10.37,2013-02-12 12:56:00,
2013-02-12 05:01:00,40.6,40.1,29.70,SW,225,0.0,0.0,98,0.00,CLR,,0.02,WeatherDisplay:10.37,2013-02-12 13:01:00,
2013-02-12 05:06:00,40.5,39.9,29.70,SW,225,0.0,0.0,98,0.00,CLR,,0.02,WeatherDisplay:10.37,2013-02-12 13:06:00,
2013-02-12 05:11:00,40.6,40.1,29.70,SE,135,0.0,0.0,98,0.00,CLR,,0.02,WeatherDisplay:10.37,2013-02-12 13:11:00,
2013-02-12 05:16:00,40.6,40.1,29.70,SE,135,0.0,0.0,98,0.00,CLR,,0.02,WeatherDisplay:10.37,2013-02-12 13:16:00,
2013-02-12 05:21:00,40.5,39.9,29.70,SE,135,0.0,0.0,98,0.00,CLR,,0.02,WeatherDisplay:10.37,2013-02-12 13:21:00,
2013-02-12 05:26:00,40.5,39.9,29.70,SE,135,0.0,0.0,98,0.00,CLR,,0.02,WeatherDisplay:10.37,2013-02-12 13:26:00,
2013-02-12 05:31:00,40.5,39.9,29.70,SE,135,0.0,0.0,98,0.00,CLR,,0.02,WeatherDisplay:10.37,2013-02-12 13:31:00,
2013-02-12 05:36:00,40.6,40.1,29.71,SE,135,0.0,0.0,98,0.00,CLR,,0.02,WeatherDisplay:10.37,2013-02-12 13:36:00,
2013-02-12 05:41:00,40.6,40.1,29.70,SE,135,0.0,0.0,98,0.00,CLR,,0.02,WeatherDisplay:10.37,2013-02-12 13:41:00,
2013-02-12 05:46:00,40.6,40.1,29.71,SW,225,0.0,0.0,98,0.00,CLR,,0.02,WeatherDisplay:10.37,2013-02-12 13:46:00,
2013-02-12 05:51:00,40.6,40.1,29.70,SW,225,0.0,0.0,98,0.00,CLR,,0.02,WeatherDisplay:10.37,2013-02-12 13:51:00,
2013-02-12 05:56:00,40.6,40.1,29.72,SW,225,0.0,0.0,98,0.00,CLR,,0.02,WeatherDisplay:10.37,2013-02-12 13:56:00,
2013-02-12 06:02:00,40.6,40.1,29.72,SW,225,0.0,0.0,98,0.00,CLR,,0.02,WeatherDisplay:10.37,2013-02-12 14:02:00,
2013-02-12 06:07:00,40.6,40.1,29.71,SW,225,0.0,0.0,98,0.00,CLR,,0.02,WeatherDisplay:10.37,2013-02-12 14:07:00,
2013-02-12 06:12:00,40.8,40.3,29.71,SW,225,0.0,0.0,98,0.00,CLR,,0.02,WeatherDisplay:10.37,2013-02-12 14:12:00,
2013-02-12 06:17:00,40.8,40.3,29.71,SW,225,0.0,0.0,98,0.00,CLR,,0.02,WeatherDisplay:10.37,2013-02-12 14:17:00,
2013-02-12 06:22:00,40.8,40.3,29.71,SW,225,0.0,0.0,98,0.00,CLR,,0.02,WeatherDisplay:10.37,2013-02-12 14:22:00,
2013-02-12 06:27:00,40.8,40.3,29.71,SW,225,0.0,0.0,98,0.00,CLR,,0.02,WeatherDisplay:10.37,2013-02-12 14:27:00,
2013-02-12 06:32:00,40.8,40.3,29.72,SW,225,0.0,0.0,98,0.00,CLR,,0.02,WeatherDisplay:10.37,2013-02-12 14:32:00,
2013-02-12 06:37:00,40.8,40.3,29.72,SW,225,0.0,0.0,98,0.00,CLR,,0.02,WeatherDisplay:10.37,2013-02-12 14:37:00,
2013-02-12 06:42:00,40.8,40.3,29.72,SW,225,0.0,0.0,98,0.00,CLR,,0.02,WeatherDisplay:10.37,2013-02-12 14:42:00,
2013-02-12 06:47:00,40.8,40.3,29.72,SW,225,0.0,0.0,98,0.00,CLR,,0.02,WeatherDisplay:10.37,2013-02-12 14:47:00,
2013-02-12 06:52:00,40.8,40.3,29.72,SW,225,0.0,0.0,98,0.00,CLR,,0.02,WeatherDisplay:10.37,2013-02-12 14:52:00,
2013-02-12 06:57:00,40.8,40.3,29.72,SW,225,0.0,0.0,98,0.00,CLR,,0.02,WeatherDisplay:10.37,2013-02-12 14:57:00,
2013-02-12 07:02:00,40.8,40.3,29.72,SW,225,0.0,0.0,98,0.00,CLR,,0.02,WeatherDisplay:10.37,2013-02-12 15:02:00,
2013-02-12 07:07:00,41.0,40.5,29.72,SW,225,0.0,0.0,98,0.00,CLR,,0.02,WeatherDisplay:10.37,2013-02-12 15:07:00,
2013-02-12 07:12:00,40.8,40.3,29.72,SW,225,0.0,0.0,98,0.00,CLR,,0.02,WeatherDisplay:10.37,2013-02-12 15:12:00,
2013-02-12 07:17:00,40.8,40.3,29.72,SW,225,0.0,0.0,98,0.00,CLR,,0.02,WeatherDisplay:10.37,2013-02-12 15:17:00,
2013-02-12 07:22:00,40.8,40.3,29.72,SW,225,0.0,0.0,98,0.00,CLR,,0.02,WeatherDisplay:10.37,2013-02-12 15:22:00,
2013-02-12 07:27:00,41.0,40.5,29.73,SW,225,0.0,0.0,98,0.00,CLR,,0.02,WeatherDisplay:10.37,2013-02-12 15:27:00,
2013-02-12 07:32:00,41.0,40.5,29.73,SW,225,0.0,0.0,98,0.00,CLR,,0.02,WeatherDisplay:10.37,2013-02-12 15:32:00,
2013-02-12 07:37:00,41.0,40.5,29.73,SW,225,0.0,0.0,98,0.00,CLR,,0.02,WeatherDisplay:10.37,2013-02-12 15:37:00,
2013-02-12 07:42:00,41.0,40.5,29.73,SW,225,0.0,0.0,98,0.00,CLR,,0.02,WeatherDisplay:10.37,2013-02-12 15:42:00,
2013-02-12 07:47:00,41.0,40.5,29.73,SW,225,0.0,0.0,98,0.00,CLR,,0.02,WeatherDisplay:10.37,2013-02-12 15:47:00,
2013-02-12 07:52:00,41.2,40.7,29.72,SW,225,0.0,0.0,98,0.00,CLR,,0.02,WeatherDisplay:10.37,2013-02-12 15:52:00,
2013-02-12 07:57:00,41.2,40.7,29.73,SW,225,0.0,0.0,98,0.02,RA,,0.02,WeatherDisplay:10.37,2013-02-12 15:57:00,
2013-02-12 08:02:00,41.4,40.8,29.73,SW,225,0.0,0.0,98,0.02,,,0.02,WeatherDisplay:10.37,2013-02-12 16:02:00,
2013-02-12 08:07:00,41.4,40.8,29.73,SW,225,0.0,0.0,98,0.02,CLR,,0.02,WeatherDisplay:10.37,2013-02-12 16:07:00,
2013-02-12 08:13:00,41.5,41.0,29.73,SW,225,0.0,0.0,98,0.02,CLR,,0.02,WeatherDisplay:10.37,2013-02-12 16:13:00,
2013-02-12 08:17:00,41.5,41.0,29.73,SW,225,0.0,0.0,98,0.02,CLR,,0.02,WeatherDisplay:10.37,2013-02-12 16:17:00,
2013-02-12 08:23:00,41.7,41.2,29.73,SW,225,0.0,0.0,98,0.02,CLR,,0.02,WeatherDisplay:10.37,2013-02-12 16:23:00,
2013-02-12 08:28:00,41.7,41.2,29.74,West,270,0.0,0.0,98,0.02,CLR,,0.02,WeatherDisplay:10.37,2013-02-12 16:28:00,
2013-02-12 08:33:00,42.1,41.6,29.74,West,270,0.0,0.0,98,0.02,CLR,,0.02,WeatherDisplay:10.37,2013-02-12 16:33:00,
2013-02-12 08:38:00,42.3,41.7,29.74,West,270,0.0,0.0,98,0.02,CLR,,0.02,WeatherDisplay:10.37,2013-02-12 16:38:00,
2013-02-12 08:43:00,42.3,41.7,29.74,West,270,0.0,0.0,98,0.02,CLR,,0.02,WeatherDisplay:10.37,2013-02-12 16:43:00,
2013-02-12 08:48:00,42.4,41.9,29.74,West,270,0.0,0.0,98,0.02,CLR,,0.02,WeatherDisplay:10.37,2013-02-12 16:48:00,
2013-02-12 08:53:00,42.4,41.9,29.74,West,270,0.0,0.0,98,0.00,CLR,,0.02,WeatherDisplay:10.37,2013-02-12 16:53:00,
2013-02-12 08:58:00,42.4,41.9,29.74,West,270,0.0,0.0,98,0.00,CLR,,0.02,WeatherDisplay:10.37,2013-02-12 16:58:00,
2013-02-12 09:03:00,42.6,42.1,29.75,West,270,0.0,0.0,98,0.00,CLR,,0.02,WeatherDisplay:10.37,2013-02-12 17:03:00,
2013-02-12 09:08:00,42.6,42.1,29.74,West,270,0.0,0.0,98,0.00,CLR,,0.02,WeatherDisplay:10.37,2013-02-12 17:08:00,
2013-02-12 09:13:00,42.8,42.3,29.74,West,270,0.0,0.0,98,0.00,CLR,,0.02,WeatherDisplay:10.37,2013-02-12 17:13:00,
2013-02-12 09:18:00,42.8,42.3,29.74,West,270,0.0,0.0,98,0.00,CLR,,0.02,WeatherDisplay:10.37,2013-02-12 17:18:00,
2013-02-12 09:23:00,43.0,42.5,29.74,SE,135,0.0,0.0,98,0.00,CLR,,0.02,WeatherDisplay:10.37,2013-02-12 17:23:00,
2013-02-12 09:28:00,43.3,42.8,29.74,SE,135,0.0,0.0,98,0.00,CLR,,0.02,WeatherDisplay:10.37,2013-02-12 17:28:00,
2013-02-12 09:33:00,43.5,43.0,29.74,SE,135,0.0,0.0,98,0.00,CLR,,0.02,WeatherDisplay:10.37,2013-02-12 17:33:00,
2013-02-12 09:38:00,43.5,43.3,29.74,West,270,0.0,0.0,99,0.00,CLR,,0.02,WeatherDisplay:10.37,2013-02-12 17:38:00,
2013-02-12 09:43:00,43.5,43.3,29.74,SW,225,0.0,0.0,99,0.00,CLR,,0.02,WeatherDisplay:10.37,2013-02-12 17:43:00,
2013-02-12 09:48:00,43.5,43.0,29.74,West,270,0.0,0.0,98,0.01,RA,,0.04,WeatherDisplay:10.37,2013-02-12 17:48:00,
2013-02-12 09:53:00,43.9,43.4,29.74,East,90,0.0,0.0,98,0.01,RA,,0.04,WeatherDisplay:10.37,2013-02-12 17:53:00,
2013-02-12 09:58:00,44.1,43.5,29.74,East,90,0.0,0.0,98,0.01,CLR,,0.04,WeatherDisplay:10.37,2013-02-12 17:58:00,
2013-02-12 10:03:00,44.2,44.0,29.74,West,270,0.0,0.0,99,0.01,CLR,,0.04,WeatherDisplay:10.37,2013-02-12 18:03:00,
2013-02-12 10:08:00,44.4,44.2,29.74,NE,45,1.1,0.0,99,0.01,CLR,,0.04,WeatherDisplay:10.37,2013-02-12 18:08:00,
2013-02-12 10:13:00,44.6,44.1,29.75,NE,45,0.0,0.0,98,0.01,CLR,,0.04,WeatherDisplay:10.37,2013-02-12 18:13:00,
2013-02-12 10:18:00,44.6,44.1,29.75,SW,225,0.0,0.0,98,0.01,CLR,,0.04,WeatherDisplay:10.37,2013-02-12 18:18:00,
2013-02-12 10:23:00,44.8,44.3,29.75,West,270,0.0,0.0,98,0.01,CLR,,0.04,WeatherDisplay:10.37,2013-02-12 18:23:00,
2013-02-12 10:28:00,45.0,44.4,29.76,SE,135,0.0,0.0,98,0.01,CLR,,0.04,WeatherDisplay:10.37,2013-02-12 18:28:00,
2013-02-12 10:33:00,44.8,44.3,29.76,SW,225,0.0,0.0,98,0.01,CLR,,0.04,WeatherDisplay:10.37,2013-02-12 18:33:00,
2013-02-12 10:38:00,45.0,44.4,29.76,East,90,0.0,0.0,98,0.01,CLR,,0.04,WeatherDisplay:10.37,2013-02-12 18:38:00,
2013-02-12 10:43:00,45.0,44.4,29.75,SE,135,0.0,0.0,98,0.01,CLR,,0.04,WeatherDisplay:10.37,2013-02-12 18:43:00,
2013-02-12 10:48:00,45.1,44.3,29.76,SE,135,0.0,0.0,97,0.00,CLR,,0.04,WeatherDisplay:10.37,2013-02-12 18:48:00,
2013-02-12 10:53:00,45.1,44.3,29.76,South,180,0.0,0.0,97,0.00,CLR,,0.04,WeatherDisplay:10.37,2013-02-12 18:53:00,
2013-02-12 10:58:00,45.1,44.3,29.76,SW,225,0.0,0.0,97,0.00,CLR,,0.04,WeatherDisplay:10.37,2013-02-12 18:58:00,
2013-02-12 11:03:00,45.5,44.7,29.75,SE,135,0.0,0.0,97,0.00,CLR,,0.04,WeatherDisplay:10.37,2013-02-12 19:03:00,
2013-02-12 11:08:00,46.0,45.2,29.76,SW,225,0.0,0.0,97,0.00,CLR,,0.04,WeatherDisplay:10.37,2013-02-12 19:08:00,
2013-02-12 11:13:00,46.6,45.8,29.75,NE,45,0.0,0.0,97,0.00,CLR,,0.04,WeatherDisplay:10.37,2013-02-12 19:13:00,
2013-02-12 11:18:00,47.7,46.9,29.75,North,0,0.0,0.0,97,0.00,CLR,,0.04,WeatherDisplay:10.37,2013-02-12 19:18:00,
2013-02-12 11:23:00,48.0,46.9,29.75,SE,135,0.0,0.0,96,0.00,CLR,,0.04,WeatherDisplay:10.37,2013-02-12 19:23:00,
2013-02-12 11:28:00,48.6,47.2,29.74,North,0,0.0,0.0,95,0.00,CLR,,0.04,WeatherDisplay:10.37,2013-02-12 19:28:00,
2013-02-12 11:33:00,48.9,47.3,29.74,NE,45,0.0,0.0,94,0.00,CLR,,0.04,WeatherDisplay:10.37,2013-02-12 19:33:00,
2013-02-12 11:38:00,49.3,47.1,29.74,SE,135,0.0,0.0,92,0.00,CLR,,0.04,WeatherDisplay:10.37,2013-02-12 19:38:00,
2013-02-12 11:43:00,49.3,46.5,29.74,East,90,0.0,0.0,90,0.00,CLR,,0.04,WeatherDisplay:10.37,2013-02-12 19:43:00,
2013-02-12 11:48:00,49.5,46.6,29.74,NW,315,0.0,0.0,90,0.00,CLR,,0.04,WeatherDisplay:10.37,2013-02-12 19:48:00,
2013-02-12 11:53:00,48.9,45.5,29.74,North,0,0.0,0.0,88,0.00,CLR,,0.04,WeatherDisplay:10.37,2013-02-12 19:53:00,
2013-02-12 11:58:00,48.7,45.0,29.74,SW,225,0.0,0.0,87,0.00,CLR,,0.04,WeatherDisplay:10.37,2013-02-12 19:58:00,
2013-02-12 12:03:00,48.6,44.6,29.74,NW,315,0.0,0.0,86,0.00,CLR,,0.04,WeatherDisplay:10.37,2013-02-12 20:03:00,
2013-02-12 12:08:00,48.7,45.0,29.74,North,0,0.0,0.0,87,0.00,CLR,,0.04,WeatherDisplay:10.37,2013-02-12 20:08:00,
2013-02-12 12:13:00,48.9,44.9,29.73,SE,135,0.0,0.0,86,0.00,CLR,,0.04,WeatherDisplay:10.37,2013-02-12 20:13:00,
2013-02-12 12:18:00,49.1,45.1,29.74,SE,135,0.0,0.0,86,0.00,CLR,,0.04,WeatherDisplay:10.37,2013-02-12 20:18:00,
2013-02-12 12:23:00,49.3,45.3,29.74,North,0,0.0,0.0,86,0.00,CLR,,0.04,WeatherDisplay:10.37,2013-02-12 20:23:00,
2013-02-12 12:28:00,49.5,45.4,29.73,SE,135,0.0,0.0,86,0.00,CLR,,0.04,WeatherDisplay:10.37,2013-02-12 20:28:00,
2013-02-12 12:33:00,49.3,45.0,29.73,South,180,0.0,0.0,85,0.00,CLR,,0.04,WeatherDisplay:10.37,2013-02-12 20:33:00,
2013-02-12 12:38:00,49.1,44.8,29.73,SE,135,0.0,0.0,85,0.00,CLR,,0.04,WeatherDisplay:10.37,2013-02-12 20:38:00,
2013-02-12 12:43:00,48.7,44.4,29.73,South,180,0.0,0.0,85,0.00,CLR,,0.04,WeatherDisplay:10.37,2013-02-12 20:43:00,
2013-02-12 12:48:00,48.7,44.4,29.72,NE,45,0.0,0.0,85,0.00,CLR,,0.04,WeatherDisplay:10.37,2013-02-12 20:48:00,
2013-02-12 12:53:00,48.4,44.1,29.73,West,270,0.0,0.0,85,0.00,CLR,,0.04,WeatherDisplay:10.37,2013-02-12 20:53:00,
2013-02-12 12:58:00,48.4,44.1,29.73,South,180,0.0,0.0,85,0.00,CLR,,0.04,WeatherDisplay:10.37,2013-02-12 20:58:00,
2013-02-12 13:03:00,47.8,43.9,29.73,East,90,0.0,0.0,86,0.00,CLR,,0.04,WeatherDisplay:10.37,2013-02-12 21:03:00,
2013-02-12 13:08:00,48.0,44.0,29.73,East,90,0.0,0.0,86,0.00,CLR,,0.04,WeatherDisplay:10.37,2013-02-12 21:08:00,
2013-02-12 13:13:00,48.0,44.0,29.72,NE,45,0.0,0.0,86,0.00,CLR,,0.04,WeatherDisplay:10.37,2013-02-12 21:13:00,
2013-02-12 13:18:00,48.0,44.0,29.71,SSE,158,0.0,0.0,86,0.00,CLR,,0.04,WeatherDisplay:10.37,2013-02-12 21:18:00,
2013-02-12 13:24:00,48.2,44.2,29.71,East,90,0.0,0.0,86,0.00,CLR,,0.04,WeatherDisplay:10.37,2013-02-12 21:24:00,
2013-02-12 13:29:00,48.4,44.4,29.71,SE,135,0.0,0.0,86,0.00,CLR,,0.04,WeatherDisplay:10.37,2013-02-12 21:29:00,
2013-02-12 13:34:00,48.4,44.4,29.71,East,90,0.0,0.0,86,0.00,CLR,,0.04,WeatherDisplay:10.37,2013-02-12 21:34:00,
2013-02-12 13:39:00,48.4,44.4,29.71,SE,135,0.0,0.0,86,0.00,CLR,,0.04,WeatherDisplay:10.37,2013-02-12 21:39:00,
2013-02-12 13:44:00,48.4,44.4,29.70,SW,225,0.0,0.0,86,0.00,CLR,,0.04,WeatherDisplay:10.37,2013-02-12 21:44:00,
2013-02-12 13:49:00,48.4,44.4,29.69,NE,45,0.0,0.0,86,0.00,CLR,,0.04,WeatherDisplay:10.37,2013-02-12 21:49:00,
2013-02-12 13:54:00,48.6,44.6,29.69,NE,45,0.0,0.0,86,0.00,CLR,,0.04,WeatherDisplay:10.37,2013-02-12 21:54:00,
2013-02-12 13:59:00,48.7,44.7,29.68,East,90,0.0,0.0,86,0.00,CLR,,0.04,WeatherDisplay:10.37,2013-02-12 21:59:00,
2013-02-12 14:04:00,49.3,45.0,29.68,East,90,0.0,0.0,85,0.00,CLR,,0.04,WeatherDisplay:10.37,2013-02-12 22:04:00,
2013-02-12 14:09:00,49.1,44.8,29.69,SW,225,0.0,0.0,85,0.00,CLR,,0.04,WeatherDisplay:10.37,2013-02-12 22:09:00,
2013-02-12 14:14:00,49.1,44.8,29.69,East,90,0.0,0.0,85,0.00,CLR,,0.04,WeatherDisplay:10.37,2013-02-12 22:14:00,
2013-02-12 14:19:00,48.6,44.3,29.68,SW,225,0.0,0.0,85,0.00,CLR,,0.04,WeatherDisplay:10.37,2013-02-12 22:19:00,
2013-02-12 14:24:00,48.6,44.3,29.69,SE,135,0.0,0.0,85,0.00,CLR,,0.04,WeatherDisplay:10.37,2013-02-12 22:24:00,
2013-02-12 14:29:00,48.2,44.2,29.69,West,270,0.0,0.0,86,0.00,CLR,,0.04,WeatherDisplay:10.37,2013-02-12 22:29:00,
2013-02-12 14:34:00,47.8,43.9,29.69,North,0,0.0,0.0,86,0.00,CLR,,0.04,WeatherDisplay:10.37,2013-02-12 22:34:00,
2013-02-12 14:39:00,47.8,44.2,29.69,SE,135,0.0,0.0,87,0.00,CLR,,0.04,WeatherDisplay:10.37,2013-02-12 22:39:00,
2013-02-12 14:44:00,47.7,44.0,29.69,SE,135,0.0,0.0,87,0.00,CLR,,0.04,WeatherDisplay:10.37,2013-02-12 22:44:00,
2013-02-12 14:49:00,47.7,44.3,29.69,South,180,0.0,0.0,88,0.00,CLR,,0.04,WeatherDisplay:10.37,2013-02-12 22:49:00,
2013-02-12 14:54:00,47.8,44.5,29.69,SW,225,0.0,0.0,88,0.00,CLR,,0.04,WeatherDisplay:10.37,2013-02-12 22:54:00,
2013-02-12 14:59:00,47.8,44.5,29.68,West,270,0.0,0.0,88,0.00,CLR,,0.04,WeatherDisplay:10.37,2013-02-12 22:59:00,
2013-02-12 15:04:00,47.7,44.3,29.68,SSW,202,0.0,0.0,88,0.00,CLR,,0.04,WeatherDisplay:10.37,2013-02-12 23:04:00,
2013-02-12 15:09:00,47.5,44.1,29.68,SW,225,0.0,0.0,88,0.00,CLR,,0.04,WeatherDisplay:10.37,2013-02-12 23:09:00,
2013-02-12 15:14:00,47.3,44.2,29.69,South,180,0.0,0.0,89,0.00,CLR,,0.04,WeatherDisplay:10.37,2013-02-12 23:14:00,
2013-02-12 15:19:00,46.9,43.9,29.69,SE,135,0.0,0.0,89,0.00,CLR,,0.04,WeatherDisplay:10.37,2013-02-12 23:19:00,
2013-02-12 15:24:00,46.9,43.9,29.68,East,90,0.0,0.0,89,0.00,CLR,,0.04,WeatherDisplay:10.37,2013-02-12 23:24:00,
2013-02-12 15:29:00,46.8,44.0,29.69,East,90,0.0,0.0,90,0.00,CLR,,0.04,WeatherDisplay:10.37,2013-02-12 23:29:00,
2013-02-12 15:34:00,46.6,43.8,29.68,East,90,0.0,0.0,90,0.00,CLR,,0.04,WeatherDisplay:10.37,2013-02-12 23:34:00,
2013-02-12 15:39:00,46.4,43.9,29.68,South,180,0.0,0.0,91,0.00,CLR,,0.04,WeatherDisplay:10.37,2013-02-12 23:39:00,
2013-02-12 15:44:00,46.4,43.9,29.68,SW,225,0.0,0.0,91,0.00,CLR,,0.04,WeatherDisplay:10.37,2013-02-12 23:44:00,
2013-02-12 15:49:00,46.4,44.2,29.67,NW,315,0.0,0.0,92,0.00,CLR,,0.04,WeatherDisplay:10.37,2013-02-12 23:49:00,
2013-02-12 15:54:00,46.4,44.2,29.67,East,90,0.0,0.0,92,0.00,CLR,,0.04,WeatherDisplay:10.37,2013-02-12 23:54:00,
2013-02-12 15:59:00,46.4,44.2,29.67,SE,135,0.0,0.0,92,0.00,CLR,,0.04,WeatherDisplay:10.37,2013-02-12 23:59:00,
2013-02-12 16:04:00,46.4,44.2,29.68,NE,45,0.0,0.0,92,0.00,RA,,0.00,WeatherDisplay:10.37,2013-02-13 00:04:00,
2013-02-12 16:09:00,46.4,44.2,29.69,NE,45,0.0,0.0,92,0.00,RA,,0.00,WeatherDisplay:10.37,2013-02-13 00:09:00,
2013-02-12 16:14:00,46.6,44.4,29.69,East,90,0.0,0.0,92,0.00,CLR,,0.00,WeatherDisplay:10.37,2013-02-13 00:14:00,
2013-02-12 16:19:00,46.6,44.4,29.69,South,180,0.0,0.0,92,0.00,CLR,,0.00,WeatherDisplay:10.37,2013-02-13 00:19:00,
2013-02-12 16:24:00,46.6,44.4,29.68,SE,135,0.0,0.0,92,0.00,CLR,,0.00,WeatherDisplay:10.37,2013-02-13 00:24:00,
2013-02-12 16:29:00,46.6,44.4,29.68,South,180,0.0,0.0,92,0.00,CLR,,0.00,WeatherDisplay:10.37,2013-02-13 00:29:00,
2013-02-12 16:34:00,46.8,44.6,29.68,SW,225,0.0,0.0,92,0.00,CLR,,0.00,WeatherDisplay:10.37,2013-02-13 00:34:00,
2013-02-12 16:39:00,46.8,44.6,29.68,SW,225,0.0,0.0,92,0.00,CLR,,0.00,WeatherDisplay:10.37,2013-02-13 00:39:00,
2013-02-12 16:44:00,46.8,44.6,29.68,East,90,0.0,0.0,92,0.00,CLR,,0.00,WeatherDisplay:10.37,2013-02-13 00:44:00,
2013-02-12 16:49:00,46.8,44.6,29.67,NW,315,0.0,0.0,92,0.00,CLR,,0.00,WeatherDisplay:10.37,2013-02-13 00:49:00,
2013-02-12 16:54:00,46.9,44.7,29.67,SW,225,0.0,0.0,92,0.00,CLR,,0.00,WeatherDisplay:10.37,2013-02-13 00:54:00,
2013-02-12 16:59:00,46.9,44.7,29.68,NE,45,0.0,0.0,92,0.00,CLR,,0.00,WeatherDisplay:10.37,2013-02-13 00:59:00,
2013-02-12 17:04:00,46.9,44.7,29.67,SE,135,0.0,0.0,92,0.00,CLR,,0.00,WeatherDisplay:10.37,2013-02-13 01:04:00,
2013-02-12 17:09:00,47.1,44.9,29.67,NW,315,0.0,0.0,92,0.00,CLR,,0.00,WeatherDisplay:10.37,2013-02-13 01:09:00,
2013-02-12 17:14:00,47.1,44.9,29.67,NNE,22,0.0,0.0,92,0.00,CLR,,0.00,WeatherDisplay:10.37,2013-02-13 01:14:00,
2013-02-12 17:19:00,46.9,44.7,29.67,West,270,0.0,0.0,92,0.00,CLR,,0.00,WeatherDisplay:10.37,2013-02-13 01:19:00,
2013-02-12 17:24:00,46.9,44.7,29.67,North,0,0.0,0.0,92,0.00,CLR,,0.00,WeatherDisplay:10.37,2013-02-13 01:24:00,
2013-02-12 17:29:00,46.9,44.4,29.67,South,180,0.0,0.0,91,0.00,CLR,,0.00,WeatherDisplay:10.37,2013-02-13 01:29:00,
2013-02-12 17:34:00,46.9,44.7,29.67,South,180,0.0,0.0,92,0.00,CLR,,0.00,WeatherDisplay:10.37,2013-02-13 01:34:00,
2013-02-12 17:39:00,46.9,44.7,29.67,WSW,248,0.0,0.0,92,0.00,CLR,,0.00,WeatherDisplay:10.37,2013-02-13 01:39:00,
2013-02-12 17:44:00,47.1,44.9,29.67,SW,225,0.0,0.0,92,0.00,CLR,,0.00,WeatherDisplay:10.37,2013-02-13 01:44:00,
2013-02-12 17:49:00,47.1,44.9,29.67,NE,45,0.0,0.0,92,0.00,CLR,,0.00,WeatherDisplay:10.37,2013-02-13 01:49:00,
2013-02-12 17:54:00,47.1,44.6,29.67,West,270,0.0,0.0,91,0.00,CLR,,0.00,WeatherDisplay:10.37,2013-02-13 01:54:00,
2013-02-12 17:59:00,47.1,44.6,29.67,SE,135,0.0,0.0,91,0.00,CLR,,0.00,WeatherDisplay:10.37,2013-02-13 01:59:00,
2013-02-12 18:04:00,47.1,44.6,29.67,East,90,0.0,0.0,91,0.00,CLR,,0.00,WeatherDisplay:10.37,2013-02-13 02:04:00,
2013-02-12 18:09:00,46.9,44.4,29.67,SW,225,0.0,0.0,91,0.00,CLR,,0.00,WeatherDisplay:10.37,2013-02-13 02:09:00,
2013-02-12 18:14:00,47.1,44.6,29.66,NE,45,0.0,0.0,91,0.00,CLR,,0.00,WeatherDisplay:10.37,2013-02-13 02:14:00,
2013-02-12 18:19:00,47.3,44.8,29.66,NE,45,0.0,0.0,91,0.00,CLR,,0.00,WeatherDisplay:10.37,2013-02-13 02:19:00,
2013-02-12 18:25:00,47.3,44.8,29.66,East,90,0.0,0.0,91,0.00,CLR,,0.00,WeatherDisplay:10.37,2013-02-13 02:25:00,
2013-02-12 18:30:00,47.3,44.8,29.66,East,90,0.0,0.0,91,0.00,CLR,,0.00,WeatherDisplay:10.37,2013-02-13 02:30:00,
2013-02-12 18:35:00,47.1,44.6,29.66,South,180,0.0,0.0,91,0.00,CLR,,0.00,WeatherDisplay:10.37,2013-02-13 02:35:00,
2013-02-12 18:40:00,47.3,44.8,29.65,SE,135,0.0,0.0,91,0.00,CLR,,0.00,WeatherDisplay:10.37,2013-02-13 02:40:00,
2013-02-12 18:45:00,47.3,44.8,29.65,SE,135,0.0,0.0,91,0.00,CLR,,0.00,WeatherDisplay:10.37,2013-02-13 02:45:00,
2013-02-12 18:50:00,47.3,44.8,29.65,East,90,0.0,0.0,91,0.00,CLR,,0.00,WeatherDisplay:10.37,2013-02-13 02:50:00,
2013-02-12 18:55:00,47.3,44.8,29.64,SE,135,0.0,0.0,91,0.00,CLR,,0.00,WeatherDisplay:10.37,2013-02-13 02:55:00,
2013-02-12 19:00:00,47.3,44.5,29.64,SSE,160,0.0,0.0,90,0.00,CLR,CLR,0.00,WeatherDisplay:10.37,2013-02-13 03:00:00,
2013-02-12 19:05:00,47.3,44.5,29.66,SSE,158,0.0,0.0,90,0.00,CLR,,0.00,WeatherDisplay:10.37,2013-02-13 03:05:00,
2013-02-12 19:10:00,47.2,44.4,29.65,SSE,156,0.0,0.0,90,0.00,CLR,CLR,0.00,WeatherDisplay:10.37,2013-02-13 03:10:00,
2013-02-12 19:15:00,47.3,44.5,29.65,SSE,157,0.0,0.0,90,0.00,CLR,CLR,0.00,WeatherDisplay:10.37,2013-02-13 03:15:00,
2013-02-12 19:20:00,47.3,44.5,29.65,SE,133,0.0,0.0,90,0.00,CLR,CLR,0.00,WeatherDisplay:10.37,2013-02-13 03:20:00,
2013-02-12 19:25:00,47.2,44.4,29.65,ESE,119,0.0,0.0,90,0.00,CLR,CLR,0.00,WeatherDisplay:10.37,2013-02-13 03:25:00,
2013-02-12 19:30:00,47.3,44.5,29.64,SE,136,0.0,0.0,90,0.00,CLR,CLR,0.00,WeatherDisplay:10.37,2013-02-13 03:30:00,
2013-02-12 19:35:00,47.3,44.5,29.65,NW,315,0.0,0.0,90,0.00,CLR,,0.00,WeatherDisplay:10.37,2013-02-13 03:35:00,
2013-02-12 19:40:00,47.3,44.5,29.64,South,180,0.0,0.0,90,0.00,CLR,,0.00,WeatherDisplay:10.37,2013-02-13 03:40:00,
2013-02-12 19:45:00,47.5,44.7,29.64,NE,45,0.0,0.0,90,0.00,CLR,,0.00,WeatherDisplay:10.37,2013-02-13 03:45:00,
2013-02-12 19:50:00,47.3,44.5,29.64,SE,135,0.0,0.0,90,0.00,CLR,,0.00,WeatherDisplay:10.37,2013-02-13 03:50:00,
2013-02-12 19:55:00,47.3,44.5,29.64,SSE,161,0.0,0.0,90,0.00,CLR,CLR,0.00,WeatherDisplay:10.37,2013-02-13 03:55:00,
2013-02-12 20:00:00,47.5,44.7,29.64,NE,45,0.0,0.0,90,0.00,CLR,,0.00,WeatherDisplay:10.37,2013-02-13 04:00:00,
2013-02-12 20:05:00,47.5,44.7,29.64,East,87,0.0,0.0,90,0.00,CLR,CLR,0.00,WeatherDisplay:10.37,2013-02-13 04:05:00,
2013-02-12 20:10:00,47.5,44.7,29.64,SE,130,0.0,0.0,90,0.00,CLR,CLR,0.00,WeatherDisplay:10.37,2013-02-13 04:10:00,
2013-02-12 20:15:00,47.5,44.7,29.64,NE,45,0.0,0.0,90,0.00,CLR,,0.00,WeatherDisplay:10.37,2013-02-13 04:15:00,
2013-02-12 20:20:00,47.5,44.7,29.64,East,90,0.0,0.0,90,0.00,CLR,,0.00,WeatherDisplay:10.37,2013-02-13 04:20:00,
2013-02-12 20:25:00,47.6,44.8,29.65,ESE,105,0.0,0.0,90,0.00,CLR,CLR,0.00,WeatherDisplay:10.37,2013-02-13 04:25:00,
2013-02-12 20:30:00,47.5,44.7,29.65,West,270,0.0,0.0,90,0.00,CLR,,0.00,WeatherDisplay:10.37,2013-02-13 04:30:00,
2013-02-12 20:35:00,47.7,44.9,29.65,SE,135,0.0,0.0,90,0.00,CLR,,0.00,WeatherDisplay:10.37,2013-02-13 04:35:00,
2013-02-12 20:40:00,47.7,44.9,29.65,ESE,123,0.0,0.0,90,0.00,CLR,CLR,0.00,WeatherDisplay:10.37,2013-02-13 04:40:00,
2013-02-12 20:45:00,47.5,44.7,29.64,SW,225,0.0,0.0,90,0.00,CLR,,0.00,WeatherDisplay:10.37,2013-02-13 04:45:00,
2013-02-12 20:50:00,47.7,44.6,29.63,South,180,0.0,0.0,89,0.00,CLR,,0.00,WeatherDisplay:10.37,2013-02-13 04:50:00,
2013-02-12 20:55:00,47.7,44.6,29.63,East,90,0.0,0.0,89,0.00,CLR,,0.00,WeatherDisplay:10.37,2013-02-13 04:55:00,
2013-02-12 21:00:00,47.7,44.6,29.63,East,94,0.0,0.0,89,0.00,CLR,CLR,0.00,WeatherDisplay:10.37,2013-02-13 05:00:00,
2013-02-12 21:05:00,47.7,44.6,29.63,NE,45,0.0,0.0,89,0.00,CLR,,0.00,WeatherDisplay:10.37,2013-02-13 05:05:00,
2013-02-12 21:10:00,47.3,44.2,29.64,SW,225,0.0,0.0,89,0.00,CLR,,0.00,WeatherDisplay:10.37,2013-02-13 05:10:00,
2013-02-12 21:15:00,47.7,44.6,29.63,SE,135,0.0,0.0,89,0.00,CLR,,0.00,WeatherDisplay:10.37,2013-02-13 05:15:00,
2013-02-12 21:20:00,47.7,44.6,29.63,South,180,0.0,0.0,89,0.00,CLR,,0.00,WeatherDisplay:10.37,2013-02-13 05:20:00,
2013-02-12 21:25:00,47.7,44.6,29.63,East,90,0.0,0.0,89,0.00,CLR,,0.00,WeatherDisplay:10.37,2013-02-13 05:25:00,
2013-02-12 21:30:00,47.7,44.6,29.62,East,90,0.0,0.0,89,0.00,CLR,,0.00,WeatherDisplay:10.37,2013-02-13 05:30:00,
2013-02-12 21:35:00,47.7,44.6,29.64,NW,315,0.0,0.0,89,0.00,CLR,,0.00,WeatherDisplay:10.37,2013-02-13 05:35:00,
2013-02-12 21:40:00,47.7,44.6,29.63,South,180,0.0,0.0,89,0.00,CLR,,0.00,WeatherDisplay:10.37,2013-02-13 05:40:00,
2013-02-12 21:45:00,47.7,44.6,29.64,NE,45,0.0,0.0,89,0.00,CLR,,0.00,WeatherDisplay:10.37,2013-02-13 05:45:00,
2013-02-12 21:50:00,47.8,44.5,29.64,East,90,0.0,0.0,88,0.00,CLR,,0.00,WeatherDisplay:10.37,2013-02-13 05:50:00,
2013-02-12 21:55:00,47.8,44.5,29.65,SW,225,0.0,0.0,88,0.00,CLR,,0.00,WeatherDisplay:10.37,2013-02-13 05:55:00,
2013-02-12 22:00:00,47.7,44.3,29.64,SW,225,0.0,0.0,88,0.00,CLR,,0.00,WeatherDisplay:10.37,2013-02-13 06:00:00,
2013-02-12 22:05:00,47.7,44.3,29.64,NE,45,0.0,0.0,88,0.00,CLR,,0.00,WeatherDisplay:10.37,2013-02-13 06:05:00,
2013-02-12 22:10:00,47.7,44.3,29.64,North,0,0.0,0.0,88,0.00,CLR,,0.00,WeatherDisplay:10.37,2013-02-13 06:10:00,
2013-02-12 22:15:00,47.7,44.3,29.64,SW,225,0.0,0.0,88,0.00,CLR,,0.00,WeatherDisplay:10.37,2013-02-13 06:15:00,
2013-02-12 22:20:00,47.7,44.3,29.65,NW,315,0.0,0.0,88,0.00,CLR,,0.00,WeatherDisplay:10.37,2013-02-13 06:20:00,
2013-02-12 22:25:00,47.7,44.3,29.65,East,90,0.0,0.0,88,0.00,CLR,,0.00,WeatherDisplay:10.37,2013-02-13 06:25:00,
2013-02-12 22:30:00,47.7,44.3,29.65,East,90,0.0,0.0,88,0.00,CLR,,0.00,WeatherDisplay:10.37,2013-02-13 06:30:00,
2013-02-12 22:35:00,47.7,44.0,29.65,SE,135,0.0,0.0,87,0.00,CLR,,0.00,WeatherDisplay:10.37,2013-02-13 06:35:00,
2013-02-12 22:40:00,47.7,44.0,29.65,SW,225,0.0,0.0,87,0.00,CLR,,0.00,WeatherDisplay:10.37,2013-02-13 06:40:00,
2013-02-12 22:45:00,47.7,44.0,29.65,NE,45,0.0,0.0,87,0.00,CLR,,0.00,WeatherDisplay:10.37,2013-02-13 06:45:00,
2013-02-12 22:51:00,47.7,44.0,29.65,East,90,0.0,0.0,87,0.00,CLR,,0.00,WeatherDisplay:10.37,2013-02-13 06:51:00,
2013-02-12 22:56:00,47.7,44.0,29.65,North,0,0.0,0.0,87,0.00,CLR,,0.00,WeatherDisplay:10.37,2013-02-13 06:56:00,
2013-02-12 23:01:00,47.7,43.7,29.65,NE,45,0.0,0.0,86,0.00,CLR,,0.00,WeatherDisplay:10.37,2013-02-13 07:01:00,
2013-02-12 23:06:00,47.7,43.7,29.65,SE,135,0.0,0.0,86,0.00,CLR,,0.00,WeatherDisplay:10.37,2013-02-13 07:06:00,
2013-02-12 23:11:00,47.7,43.7,29.66,East,90,0.0,0.0,86,0.00,CLR,,0.00,WeatherDisplay:10.37,2013-02-13 07:11:00,
2013-02-12 23:16:00,47.7,43.7,29.66,East,90,0.0,0.0,86,0.00,CLR,,0.00,WeatherDisplay:10.37,2013-02-13 07:16:00,
2013-02-12 23:21:00,47.7,43.7,29.66,SE,135,0.0,0.0,86,0.00,CLR,,0.00,WeatherDisplay:10.37,2013-02-13 07:21:00,
2013-02-12 23:26:00,47.7,43.7,29.66,East,90,0.0,0.0,86,0.00,CLR,,0.00,WeatherDisplay:10.37,2013-02-13 07:26:00,
2013-02-12 23:31:00,47.7,43.7,29.66,NE,45,0.0,0.0,86,0.00,CLR,,0.00,WeatherDisplay:10.37,2013-02-13 07:31:00,
2013-02-12 23:36:00,47.7,43.7,29.66,South,180,0.0,0.0,86,0.00,CLR,,0.00,WeatherDisplay:10.37,2013-02-13 07:36:00,
2013-02-12 23:41:00,47.5,43.5,29.67,SE,135,0.0,0.0,86,0.00,CLR,,0.00,WeatherDisplay:10.37,2013-02-13 07:41:00,
2013-02-12 23:46:00,47.5,43.5,29.66,SE,135,0.0,0.0,86,0.00,CLR,,0.00,WeatherDisplay:10.37,2013-02-13 07:46:00,
2013-02-12 23:51:00,47.7,43.7,29.66,South,180,1.1,0.0,86,0.00,CLR,,0.00,WeatherDisplay:10.37,2013-02-13 07:51:00,
2013-02-12 23:56:00,47.7,43.4,29.65,South,180,0.0,0.0,85,0.00,CLR,,0.00,WeatherDisplay:10.37,2013-02-13 07:56:00,